ROA1143 SKPS-SKBO

Flight info

Callsign ROA1143
Flight time 0h 52m
Altitude 31000
Route TITGU2A TITGU DCT ESARO DCT GIR GIR5E
Aircraft A320/M-SDE3FGHIRWY/LB1

Departure

Time 2026-04-25 15:33
Airport Antonio Nariño Airport (SKPS)

Arrival

Time 2026-04-25 16:26
Airport El Dorado International Airport (SKBO)
Time Latitude Longitude Altitude Speed Heading
2026-04-25 14:49 1.39576 -77.28984 5908 ft 0 kts 105°
2026-04-25 15:19 1.39583 -77.29004 5908 ft 4 kts 127°
2026-04-25 15:19 1.39589 -77.29010 5908 ft 4 kts 141°
2026-04-25 15:19 1.39618 -77.29019 5907 ft 0 kts 195°
2026-04-25 15:22 1.39608 -77.29022 5907 ft 6 kts 195°
2026-04-25 15:22 1.39570 -77.29032 5908 ft 3 kts 195°
2026-04-25 15:22 1.39558 -77.29036 5908 ft 0 kts 195°
2026-04-25 15:25 1.39545 -77.29039 5908 ft 5 kts 195°
2026-04-25 15:25 1.39527 -77.29045 5908 ft 3 kts 202°
2026-04-25 15:25 1.39523 -77.29049 5909 ft 0 kts 221°
2026-04-25 15:28 1.39522 -77.29049 5908 ft 1 kts 221°
2026-04-25 15:29 1.39513 -77.29075 5910 ft 4 kts 269°
2026-04-25 15:29 1.39517 -77.29092 5912 ft 7 kts 286°
2026-04-25 15:29 1.39503 -77.29135 5915 ft 5 kts 206°
2026-04-25 15:29 1.39470 -77.29146 5917 ft 8 kts 194°
2026-04-25 15:30 1.39393 -77.29166 5921 ft 15 kts 195°
2026-04-25 15:30 1.39272 -77.29198 5927 ft 21 kts 195°
2026-04-25 15:30 1.39118 -77.29239 5931 ft 23 kts 194°
2026-04-25 15:30 1.38977 -77.29276 5934 ft 19 kts 195°
2026-04-25 15:31 1.38859 -77.29308 5943 ft 16 kts 194°
2026-04-25 15:31 1.38764 -77.29333 5949 ft 12 kts 194°
2026-04-25 15:31 1.38709 -77.29344 5956 ft 4 kts 180°
2026-04-25 15:31 1.38686 -77.29339 5958 ft 3 kts 178°
2026-04-25 15:32 1.38681 -77.29351 5958 ft 2 kts 275°
2026-04-25 15:32 1.38706 -77.29348 5956 ft 9 kts 13°
2026-04-25 15:32 1.38726 -77.29342 5954 ft 0 kts 17°
2026-04-25 15:33 1.39495 -77.29139 5915 ft 136 kts 15°
2026-04-25 15:33 1.40615 -77.28840 6023 ft 185 kts 15°
2026-04-25 15:33 1.41883 -77.28497 6870 ft 190 kts 14°
2026-04-25 15:33 1.43165 -77.28152 7845 ft 191 kts 15°
2026-04-25 15:34 1.44465 -77.27803 8661 ft 197 kts 15°
2026-04-25 15:34 1.45819 -77.27553 9064 ft 204 kts
2026-04-25 15:34 1.47277 -77.27679 9331 ft 215 kts 346°
2026-04-25 15:34 1.48251 -77.27929 9539 ft 223 kts 345°
2026-04-25 15:35 1.52141 -77.28881 9902 ft 275 kts 346°
2026-04-25 15:35 1.54079 -77.29345 10122 ft 298 kts 346°
2026-04-25 15:35 1.56179 -77.29845 10337 ft 321 kts 346°
2026-04-25 15:36 1.60781 -77.30945 11028 ft 352 kts 346°
2026-04-25 15:36 1.63173 -77.31519 11663 ft 356 kts 346°
2026-04-25 15:36 1.65594 -77.32102 12332 ft 359 kts 346°
2026-04-25 15:37 1.68039 -77.32689 12988 ft 363 kts 346°
2026-04-25 15:37 1.70506 -77.33251 13615 ft 366 kts 349°
2026-04-25 15:37 1.73048 -77.33552 14231 ft 370 kts 357°
2026-04-25 15:37 1.75626 -77.33499 14840 ft 373 kts
2026-04-25 15:38 1.78196 -77.33077 15418 ft 377 kts 13°
2026-04-25 15:38 1.80707 -77.32271 15975 ft 380 kts 22°
2026-04-25 15:38 1.83092 -77.31110 16507 ft 384 kts 30°
2026-04-25 15:38 1.85314 -77.29614 17049 ft 387 kts 37°
2026-04-25 15:39 1.87461 -77.27967 17573 ft 390 kts 37°
2026-04-25 15:39 1.89626 -77.26317 18089 ft 393 kts 37°
2026-04-25 15:39 1.91595 -77.24616 18550 ft 396 kts 45°
2026-04-25 15:39 1.93343 -77.22477 19061 ft 399 kts 54°
2026-04-25 15:40 1.94933 -77.20194 19546 ft 401 kts 54°
2026-04-25 15:40 1.95990 -77.18673 19851 ft 403 kts 55°
2026-04-25 15:40 1.98135 -77.15587 20470 ft 406 kts 54°
2026-04-25 15:40 1.99752 -77.13265 20935 ft 408 kts 54°
2026-04-25 15:41 2.01377 -77.10934 21378 ft 410 kts 54°
2026-04-25 15:41 2.03011 -77.08591 21797 ft 412 kts 54°
2026-04-25 15:41 2.04652 -77.06231 22215 ft 414 kts 55°
2026-04-25 15:41 2.06299 -77.03859 22611 ft 417 kts 54°
2026-04-25 15:42 2.07938 -77.01501 23001 ft 419 kts 55°
2026-04-25 15:42 2.09606 -76.99105 23391 ft 421 kts 54°
2026-04-25 15:42 2.11287 -76.96687 23771 ft 423 kts 55°
2026-04-25 15:42 2.12969 -76.94265 24142 ft 424 kts 55°
2026-04-25 15:43 2.14653 -76.91845 24511 ft 426 kts 55°
2026-04-25 15:43 2.16348 -76.89409 24875 ft 427 kts 55°
2026-04-25 15:43 2.18049 -76.86960 25221 ft 429 kts 55°
2026-04-25 15:43 2.19755 -76.84505 25567 ft 431 kts 56°
2026-04-25 15:44 2.21466 -76.82037 25912 ft 433 kts 56°
2026-04-25 15:44 2.23182 -76.79562 26256 ft 434 kts 56°
2026-04-25 15:44 2.24906 -76.77074 26583 ft 435 kts 56°
2026-04-25 15:44 2.26635 -76.74585 26911 ft 437 kts 56°
2026-04-25 15:45 2.28372 -76.72089 27234 ft 438 kts 56°
2026-04-25 15:45 2.30114 -76.69588 27529 ft 439 kts 56°
2026-04-25 15:45 2.31864 -76.67074 27835 ft 441 kts 56°
2026-04-25 15:45 2.33024 -76.65405 28034 ft 442 kts 56°
2026-04-25 15:46 2.35352 -76.62052 28414 ft 443 kts 56°
2026-04-25 15:46 2.37287 -76.59648 28693 ft 446 kts 48°
2026-04-25 15:46 2.39518 -76.57479 28955 ft 448 kts 45°
2026-04-25 15:46 2.41783 -76.55333 29221 ft 449 kts 45°
2026-04-25 15:47 2.44054 -76.53180 29466 ft 451 kts 45°
2026-04-25 15:47 2.46335 -76.51018 29717 ft 452 kts 45°
2026-04-25 15:47 2.48619 -76.48850 29955 ft 454 kts 46°
2026-04-25 15:47 2.50912 -76.46673 30197 ft 455 kts 46°
2026-04-25 15:48 2.53211 -76.44490 30429 ft 457 kts 46°
2026-04-25 15:48 2.55517 -76.42296 30665 ft 458 kts 46°
2026-04-25 15:48 2.57818 -76.40099 30993 ft 456 kts 46°
2026-04-25 15:48 2.60111 -76.37910 31189 ft 455 kts 46°
2026-04-25 15:49 2.64618 -76.33628 31220 ft 441 kts 46°
2026-04-25 15:49 2.69055 -76.29417 31212 ft 439 kts 46°
2026-04-25 15:50 2.73489 -76.25210 31196 ft 439 kts 46°
2026-04-25 15:50 2.77917 -76.20996 31198 ft 439 kts 46°
2026-04-25 15:51 2.81594 -76.17488 31178 ft 439 kts 46°
2026-04-25 15:51 2.86761 -76.12559 31169 ft 439 kts 46°
2026-04-25 15:52 2.91194 -76.08341 31143 ft 440 kts 46°
2026-04-25 15:52 2.95636 -76.04124 31138 ft 440 kts 46°
2026-04-25 15:53 3.00083 -75.99905 31137 ft 441 kts 46°
2026-04-25 15:53 3.04531 -75.95686 31130 ft 441 kts 46°
2026-04-25 15:54 3.08987 -75.91459 31124 ft 441 kts 46°
2026-04-25 15:54 3.13415 -75.87257 31117 ft 442 kts 46°
2026-04-25 15:55 3.17875 -75.83020 31114 ft 442 kts 46°
2026-04-25 15:55 3.22334 -75.78775 31110 ft 443 kts 46°
2026-04-25 15:56 3.26802 -75.74522 31108 ft 443 kts 46°
2026-04-25 15:56 3.31265 -75.70276 31101 ft 443 kts 46°
2026-04-25 15:57 3.35745 -75.66024 31103 ft 444 kts 46°
2026-04-25 15:57 3.40230 -75.61767 31103 ft 444 kts 46°
2026-04-25 15:58 3.44709 -75.57509 31103 ft 444 kts 46°
2026-04-25 15:58 3.49187 -75.53247 31098 ft 444 kts 46°
2026-04-25 15:59 3.53667 -75.48984 31097 ft 444 kts 46°
2026-04-25 15:59 3.58152 -75.44722 31097 ft 445 kts 46°
2026-04-25 16:00 3.61123 -75.41896 31095 ft 445 kts 46°
2026-04-25 16:00 3.67124 -75.36187 31097 ft 445 kts 46°
2026-04-25 16:01 3.71584 -75.31943 31097 ft 445 kts 46°
2026-04-25 16:01 3.76096 -75.27648 31098 ft 445 kts 46°
2026-04-25 16:02 3.80560 -75.23402 31097 ft 445 kts 46°
2026-04-25 16:02 3.85047 -75.19130 31100 ft 445 kts 46°
2026-04-25 16:03 3.89541 -75.14848 31096 ft 446 kts 46°
2026-04-25 16:03 3.91795 -75.12701 30857 ft 447 kts 45°
2026-04-25 16:03 3.94053 -75.10552 30616 ft 447 kts 46°
2026-04-25 16:04 3.96308 -75.08405 30364 ft 447 kts 46°
2026-04-25 16:04 3.98558 -75.06260 30117 ft 446 kts 46°
2026-04-25 16:04 4.00800 -75.04124 29750 ft 444 kts 46°
2026-04-25 16:04 4.03039 -75.01991 29362 ft 444 kts 45°
2026-04-25 16:05 4.05275 -74.99861 28990 ft 442 kts 45°
2026-04-25 16:05 4.07497 -74.97742 28610 ft 440 kts 45°
2026-04-25 16:05 4.11921 -74.93528 27859 ft 436 kts 45°
2026-04-25 16:06 4.14118 -74.91433 27474 ft 434 kts 45°
2026-04-25 16:06 4.16278 -74.89398 26972 ft 432 kts 42°
2026-04-25 16:06 4.18770 -74.87665 26124 ft 438 kts 28°
2026-04-25 16:06 4.21556 -74.86495 25638 ft 433 kts 17°
2026-04-25 16:07 4.24478 -74.85879 25133 ft 427 kts
2026-04-25 16:07 4.25476 -74.85749 24960 ft 425 kts
2026-04-25 16:07 4.30307 -74.85117 24135 ft 417 kts
2026-04-25 16:07 4.33176 -74.84737 23654 ft 413 kts
2026-04-25 16:08 4.36010 -74.84365 23168 ft 410 kts
2026-04-25 16:08 4.38819 -74.83995 22699 ft 406 kts
2026-04-25 16:08 4.41612 -74.83625 22241 ft 402 kts
2026-04-25 16:08 4.43472 -74.83378 22097 ft 395 kts
2026-04-25 16:09 4.46164 -74.83022 21745 ft 387 kts
2026-04-25 16:09 4.48821 -74.82671 21328 ft 383 kts
2026-04-25 16:09 4.51452 -74.82325 20878 ft 380 kts
2026-04-25 16:09 4.54055 -74.81982 20591 ft 372 kts
2026-04-25 16:10 4.56589 -74.81649 20323 ft 365 kts
2026-04-25 16:10 4.59092 -74.81319 19813 ft 357 kts
2026-04-25 16:10 4.61517 -74.81001 19308 ft 346 kts
2026-04-25 16:10 4.63871 -74.80690 18832 ft 337 kts
2026-04-25 16:11 4.66182 -74.80386 18355 ft 334 kts
2026-04-25 16:11 4.68491 -74.80082 18022 ft 331 kts
2026-04-25 16:11 4.70752 -74.79783 17766 ft 325 kts
2026-04-25 16:11 4.72987 -74.79487 17423 ft 323 kts
2026-04-25 16:12 4.75210 -74.79187 17121 ft 322 kts
2026-04-25 16:12 4.77407 -74.79075 16981 ft 323 kts 355°
2026-04-25 16:12 4.79644 -74.79362 16998 ft 326 kts 351°
2026-04-25 16:12 4.81166 -74.79583 17002 ft 327 kts 351°
2026-04-25 16:13 4.84149 -74.80012 16974 ft 326 kts 352°
2026-04-25 16:13 4.86402 -74.80323 16950 ft 325 kts 352°
2026-04-25 16:13 4.88636 -74.80627 16941 ft 325 kts 352°
2026-04-25 16:13 4.90885 -74.80934 16946 ft 326 kts 352°
2026-04-25 16:14 4.93138 -74.81231 16930 ft 328 kts 355°
2026-04-25 16:14 4.95416 -74.81162 16926 ft 328 kts
2026-04-25 16:14 4.97615 -74.80600 16940 ft 327 kts 17°
2026-04-25 16:14 4.99791 -74.79911 16937 ft 330 kts 17°
2026-04-25 16:15 5.01967 -74.79227 16937 ft 327 kts 17°
2026-04-25 16:15 5.04149 -74.78536 16957 ft 329 kts 18°
2026-04-25 16:15 5.06139 -74.77484 16959 ft 329 kts 39°
2026-04-25 16:15 5.07624 -74.75744 16960 ft 330 kts 61°
2026-04-25 16:16 5.08349 -74.73565 16978 ft 332 kts 83°
2026-04-25 16:16 5.08225 -74.71262 16897 ft 334 kts 104°
2026-04-25 16:16 5.07312 -74.69149 16373 ft 329 kts 120°
2026-04-25 16:16 5.06149 -74.67173 16107 ft 328 kts 121°
2026-04-25 16:17 5.04990 -74.65204 15853 ft 326 kts 121°
2026-04-25 16:17 5.03846 -74.63246 15590 ft 326 kts 120°
2026-04-25 16:17 5.02705 -74.61283 15352 ft 326 kts 120°
2026-04-25 16:17 5.01570 -74.59321 15105 ft 325 kts 120°
2026-04-25 16:18 5.00443 -74.57369 14867 ft 321 kts 120°
2026-04-25 16:18 5.00080 -74.56739 14797 ft 321 kts 120°
2026-04-25 16:18 4.98205 -74.53505 14398 ft 319 kts 120°
2026-04-25 16:18 4.97086 -74.51578 14165 ft 318 kts 120°
2026-04-25 16:19 4.95959 -74.49637 13935 ft 331 kts 120°
2026-04-25 16:19 4.94798 -74.47640 13707 ft 328 kts 120°
2026-04-25 16:19 4.93633 -74.45746 13542 ft 320 kts 129°
2026-04-25 16:20 4.90524 -74.42966 13241 ft 281 kts 124°
2026-04-25 16:20 4.89483 -74.41357 13022 ft 272 kts 123°
2026-04-25 16:20 4.87198 -74.38241 12108 ft 282 kts 127°
2026-04-25 16:21 4.86030 -74.36709 12015 ft 270 kts 127°
2026-04-25 16:21 4.84926 -74.35247 12032 ft 256 kts 127°
2026-04-25 16:21 4.83879 -74.33868 12061 ft 244 kts 127°
2026-04-25 16:21 4.82859 -74.32521 12051 ft 241 kts 127°
2026-04-25 16:22 4.81864 -74.31204 11815 ft 232 kts 127°
2026-04-25 16:22 4.80901 -74.29932 11519 ft 227 kts 127°
2026-04-25 16:22 4.79958 -74.28685 11223 ft 222 kts 128°
2026-04-25 16:22 4.79033 -74.27463 10928 ft 218 kts 127°
2026-04-25 16:23 4.78125 -74.26263 10637 ft 214 kts 127°
2026-04-25 16:23 4.77236 -74.25089 10360 ft 209 kts 127°
2026-04-25 16:23 4.76382 -74.23963 10107 ft 195 kts 126°
2026-04-25 16:23 4.75600 -74.22931 9846 ft 179 kts 126°
2026-04-25 16:24 4.74866 -74.21960 9607 ft 172 kts 126°
2026-04-25 16:24 4.74223 -74.21111 9413 ft 169 kts 126°
2026-04-25 16:24 4.73507 -74.20164 9184 ft 167 kts 126°
2026-04-25 16:24 4.72806 -74.19238 8964 ft 166 kts 126°
2026-04-25 16:25 4.72115 -74.18328 8757 ft 166 kts 126°
2026-04-25 16:25 4.71653 -74.17697 8560 ft 166 kts 125°
2026-04-25 16:25 4.70737 -74.16492 8378 ft 158 kts 127°
2026-04-25 16:25 4.70165 -74.15740 8373 ft 112 kts 128°
2026-04-25 16:26 4.69814 -74.15275 8373 ft 38 kts 127°
2026-04-25 16:26 4.69749 -74.15164 8371 ft 9 kts 112°
2026-04-25 16:26 4.69733 -74.15103 8372 ft 9 kts 103°
2026-04-25 16:26 4.69722 -74.15045 8373 ft 4 kts 100°
2026-04-25 16:27 4.69719 -74.15024 8373 ft 5 kts 98°
2026-04-25 16:27 4.69718 -74.15016 8373 ft 0 kts 97°
2026-04-25 16:27 4.69718 -74.15000 8373 ft 5 kts 88°
2026-04-25 16:27 4.69726 -74.14964 8373 ft 8 kts 70°
2026-04-25 16:28 4.69741 -74.14939 8373 ft 0 kts 51°
2026-04-25 16:28 4.69752 -74.14925 8373 ft 7 kts 51°
2026-04-25 16:28 4.69818 -74.14873 8371 ft 10 kts 38°
2026-04-25 16:29 4.69876 -74.14829 8371 ft 11 kts 37°
2026-04-25 16:29 4.69937 -74.14782 8373 ft 11 kts 37°
2026-04-25 16:29 4.70001 -74.14733 8372 ft 12 kts 37°
2026-04-25 16:29 4.70057 -74.14691 8373 ft 8 kts 44°
2026-04-25 16:30 4.70052 -74.14653 8373 ft 4 kts 124°
2026-04-25 16:30 4.70039 -74.14634 8371 ft 2 kts 117°
2026-04-25 16:30 4.70043 -74.14608 8373 ft 6 kts 66°
2026-04-25 16:30 4.70039 -74.14569 8373 ft 5 kts 120°
2026-04-25 16:31 4.70023 -74.14548 8373 ft 3 kts 128°
2026-04-25 16:31 4.70006 -74.14526 8371 ft 4 kts 129°
2026-04-25 16:31 4.69992 -74.14509 8373 ft 2 kts 129°
2026-04-25 16:31 4.69983 -74.14497 8373 ft 5 kts 126°
2026-04-25 16:32 4.69952 -74.14453 8370 ft 10 kts 126°
2026-04-25 16:32 4.69922 -74.14419 8373 ft 2 kts 163°
2026-04-25 16:32 4.69903 -74.14438 8373 ft 3 kts 225°
2026-04-25 16:32 4.69892 -74.14450 8373 ft 1 kts 227°
2026-04-25 16:33 4.69889 -74.14453 8373 ft 1 kts 227°
2026-04-25 16:33 4.69884 -74.14458 8371 ft 0 kts 227°
2026-04-25 16:33 4.69883 -74.14459 8373 ft 0 kts 227°